www.pogodaiklimat.ru

ПОГОДА в Кампо, CA

  • Прогноз погоды в Кампо
  • Монитор погоды в Кампо
  • Климат в Кампо

АРХИВ ПОГОДЫ в Кампо

Время (UTC), дата Ветер
(напр.,м/с)
 
Видим.   Явления Облачность Т
(С)
Тd
(С)
f
(%)
Тe
(С)
Тes
(С)
Комфортность

P
(гПа)

Po
(гПа)
Тmin
(С)
Tmax
(С)
R
(мм)
SD
(см)
19:52 18.08 ЮЗ  н/о    н/о  +32.2  +3.9  17  +30  +30  жарко  1010.3  920.1         
20:52 18.08 ЮЗ  н/о    н/о  +32.2  +4.4  17  +30  +30  жарко  1009.8  919.5         
21:52 18.08 ЮЗ  н/о    н/о  +32.2  +5.0  18  +30  +30  жарко  1009.3  919.2         
22:52 18.08 ЮЗ  н/о    н/о  +31.1  +5.6  20  +29  +29  жарко  1009.3  918.9  +29.4  +32.8     
23:52 18.08 ЮЗ  н/о    н/о  +29.4  +8.9  28  +29  +29  жарко  1009.3  918.9         
00:52 19.08 Ю  н/о    н/о  +26.1  +11.7  41  +27  +27  жарко  1009.5  919.2         
01:52 19.08 ЮЗ  н/о    н/о  +23.3  +11.7  48  +26  +26  жарко  1009.7  919.5         
02:52 19.08   н/о    н/о  +20.0  +10.6  55  +21  +21  комфорт  1010.0  920.1         
03:52 19.08 СВ  н/о    н/о  +17.8  +8.9  56  +18  +18    1010.6  920.7         
04:52 19.08 СВ  н/о    н/о  +16.1  +8.3  60  +16  +16    1010.7  920.7  +15.6  +31.7     
05:52 19.08 СВ  н/о    н/о  +14.4  +7.8  65  +14  +14    1010.9  920.7         
06:52 19.08 СВ  н/о    н/о  +14.4  +7.8  65  +14  +14    1010.8  920.7         
07:52 19.08 СВ  н/о    н/о  +12.8  +7.2  69  +11  +11    1010.8  920.7         
08:52 19.08 СВ  н/о    н/о  +13.3  +6.7  64  +12  +12    1010.8  920.7         
09:52 19.08 СВ  н/о    н/о  +12.8  +5.6  62  +12  +12    1011.0  921.0         
10:52 19.08 СВ  н/о    н/о  +11.7  +5.0  63  +10  +10    1011.4  921.0  +10.6  +16.1     
11:52 19.08 СВ  н/о    н/о  +11.7  +3.9  59  +10  +10    1011.8  921.3         
12:52 19.08 СВ  н/о    н/о  +11.7  +4.4  61  +10  +10    1012.3  921.6         
13:52 19.08   н/о    н/о  +19.4  +5.6  40  +20  +20    1012.0  921.6         
14:52 19.08   н/о    н/о  +26.1  +4.4  25  +25  +25  комфорт  1011.6  921.6         
15:52 19.08 Ю  н/о    н/о  +29.4  -0.6  14  +27  +27  жарко  1011.8  921.6         
16:52 19.08 ЮЗ  н/о    н/о  +31.1  -1.1  12  +28  +28  жарко  1012.0  921.9  +9.4  +31.1     
17:52 19.08     н/о    н/о  +33.3  -2.8  10  +30  +30  жарко  1012.0  921.9         
18:52 19.08 ЮЗ  н/о    н/о  +34.4  0.0  11  +31  +31  жарко  1011.3  921.3         
19:52 19.08 ЮЗ  н/о    н/о  +34.4  +0.6  12  +31  +31  жарко  1011.0  921.0         
20:52 19.08 ЮЗ  н/о    н/о  +34.4  +5.0  16  +32  +32  жарко  1010.6  920.7         
21:52 19.08 ЮЗ  н/о    н/о  +33.9  +7.8  20  +32  +32  жарко  1010.0  920.1         
22:52 19.08 ЮЗ  н/о    н/о  +33.3  +8.9  22  +32  +32  жарко  1010.1  920.1  +31.1  +35.0     
23:52 19.08 ЮЗ  н/о    н/о  +31.1  +11.7  30  +31  +31  жарко  1010.1  920.1         
00:52 20.08 ЮЗ  н/о    н/о  +28.3  +12.2  37  +29  +29  жарко  1010.6  920.1         
01:52 20.08 ЮЗ  н/о    н/о  +24.4  +12.8  48  +26  +26  жарко  1010.6  920.4         
02:52 20.08 СВ  н/о    н/о  +19.4  +10.6  57  +21  +21  комфорт  1011.0  921.0         
03:52 20.08 СВ  н/о    н/о  +18.9  +10.0  56  +20  +20    1011.3  921.3         
04:52 20.08 СВ  н/о    н/о  +17.8  +9.4  58  +18  +18    1011.3  921.3  +16.7  +33.3     
05:52 20.08 СВ  н/о    н/о  +16.1  +8.3  60  +16  +16    1011.4  921.6         
06:52 20.08 СВ  н/о    н/о  +14.4  +7.2  62  +14  +14    1011.3  921.3         
07:52 20.08 СВ  н/о    н/о  +13.3  +5.6  60  +12  +12    1011.3  921.3         
08:52 20.08 СВ  н/о    н/о  +13.3  +4.4  55  +12  +12    1011.4  921.3         
09:52 20.08 С  н/о    н/о  +13.3  +2.8  49  +13  +13    1011.5  921.3         
10:52 20.08 СВ  н/о    н/о  +11.7  +1.7  50  +10  +10    1011.5  921.3  +11.1  +17.8     
11:52 20.08 СВ  н/о    н/о  +11.7  +2.2  52  +10  +10    1012.0  921.6         
12:52 20.08 СВ  н/о    н/о  +12.2  +0.6  45  +11  +11    1012.5  921.9         
13:52 20.08   н/о    н/о  +19.4  +3.9  36  +20  +20    1012.2  921.9         
14:52 20.08   н/о    н/о  +25.0  +4.4  26  +24  +24  комфорт  1012.1  921.6         
15:52 20.08 ЮЗ  н/о    н/о  +30.6  -0.6  13  +27  +27  жарко  1011.7  921.6         
16:52 20.08 Ю  н/о    н/о  +33.3  0.0  12  +30  +30  жарко  1011.4  921.6  +11.1  +33.3     
17:52 20.08 Ю  4
{10} 
н/о    н/о  +34.4  -1.1  10  +31  +31  жарко  1011.2  921.3         
18:52 20.08 ЮВ  н/о    н/о  +36.1  +3.3  13  +33  +33  жарко  1010.3  920.4         

 

Местоположение метеостанции Campo: широта 32.6261 долгота -116.4683 высота над уровнем моря 807 м.

В архиве по умолчанию представлена погода в Кампо за последние 1-2 суток. Обновление информации о фактической погоде в базе происходит ежечасно! Архивные данные за месяц целиком и за предыдущие месяцы Вы можете получить, выбрав интересующий диапазон дат из раскрывающегося списка и нажав кнопку "Ввод!".

Внимание! Архив погоды МЕТАР в базе сайта хранится не более 60 дней. Нет смысла пытаться выбрать более раннюю дату.

Внимание! Время в таблицах - всемирное. Для получения местного времени необходимо прибавить поправку, которая в Кампо равна -8 ч.

Ветер - указаны скорость ветра в м/с и направление, откуда дует ветер: С - северный, СВ - северо-восточный, В - восточный, ЮВ - юго-восточный, Ю - южный, ЮЗ - юго-западный, З - западный, СЗ - северо-западный.
Видимость - горизонтальная дальность видимости в метрах или километрах. При видимости от 1 до 10 км при отсутствии осадков обычно наблюдается дымка, при ухудшении видимости до 1 км и менее - туман. В сухую погоду видимость может ухудшаться дымом, пылью или мглою.
Атмосферные явления - указаны явления, наблюдавшиеся в указанный момент времени.
Облачность - указаны через наклонную черту верхняя и нижняя облачность в баллах и высота нижней границы облаков в метрах. Внимание: облачность, как и прочие метеорологические величины в США измеряются автоматическими метеостанциями. Указанные значения в баллах носят условный характер и показывают процент времени, в течение которого, в среднем, лазерный луч высотомера отражался от облаков обратно.
T - Температура воздуха - температура, измеренная на высоте 2 м над землей.
Td - Температура точки росы - температура, при понижении до которой содержащийся в воздухе водяной пар достигнет насыщения.
f - Относительная влажность воздуха - влажноcть воздуха, измеренная на высоте 2 м над землей.
Te - Эффективная температура - температура, которую ощущает одетый по сезону человек в тени. Характеристика душности погоды. При расчете учитывается влияние влажности воздуха и скорости ветра на теплоощущения человека.
Tes - Эффективная температура на солнце - температура, которую ощущает человек, с поправкой на солнечный нагрев. Характеристика знойности погоды. Зависит от высоты солнца над горизонтом, облачности и скорости ветра. Ночью, в пасмурную погоду, а также при ветре 12 м/с и более поправка равна нулю.
P - Атмосферное давление - приведенное к уровню моря атмосферное давление.
Po - Атмосферное давление - измеренное на уровне метеостанции атмосферное давление.
Tmin - Минимальная температура - минимум температуры воздуха на высоте 2 м над землей.
Tmax - Максимальная температура - максимум температуры воздуха на высоте 2 м над землей.
R - Количество осадков - Количество выпавших осадков за 3 или 6 часов, мм.
SD - Снежный покров - Высота снежного покрова, см.